الصفحة الرئيسية
METAR-TAF:

METAR-TAF

مطار :

La Junta Municipal Airport

La Junta, كولورادو, الولايات المتحدة

دائرة عرض: 38-02-58N, خط طول: 103-30-44W, ارتفاع: 1288 متر

مراقبة الطقس الحالي

تاريخ ووقت الإصدار 58 دقيقة قبل الساعة 07:53UTC
ريح 7 عقدة من الشرق
درجة الحرارة -7°درجة مئوية
الرطوبة 73%
ضغط 1007 hPa
الرؤية: 16.1 كم
سماء صافية

METAR: KLHX 210753Z AUTO 10007KT 10SM CLR M07/M11 A2974 RMK AO2 SLP084 T10671106

زمن: 01:51 (08:51 UTC)


TAF: مفقودة

أرصاد الطقس والتوقعات من أكثر من 4000 مطار (تقارير الطقس للمطار METAR والتنبؤ بالطقس بالمطارTAF).

المحطات المتاحة هي النقط الصفراء والحمراء على الخريطة.

حرك المؤشر فوق النقطة لمعرفة اسم المحطة.

ثم انقر لمعرفة أرصاد وتوقعات الطقس.

لتغيير الخارطة: اضغط على الأزرار الخضراء مع رمز الصليب الأسود للتكبير. على الزر الأخضر مع شرطة للتصغير، أو على الأسهم الخضراء للخرائط المجاورة.


METAR-TAF: